SCP
-0 -0 -0 -0 -0 -0 -0 -0 0 0 0 0 0 0 0 -0 0 0 -0 0 0 0 0 0 0 0 0 0 0 0 0 0 0 0 0 0 0 0 0 0 0 0 0 0 0
-0 -0 -0 -0 -0 -0 -0 -0 0 0 0 0 0 0 0 0 -0 -0 0 0 0 -0 0 0 0 0 0 0 0 0 0 0 0 0 0 0 0 0 0 0 0 0 0 0 0
-0 -0 -0 -0 -0 -0 -0 -0 0 0 0 0 0 0 0 0 0 0 0 0 0 0 0 0 0 0 0 0 0 0 0 0 0 0 0 0 0 0 0 0 0 0 0 0 0
-0 -0 -0 -0 -0 -0 -0 -0 0 0 0 0 0 0 0 0 0 0 0 0 0 0 0 0 0 0 0 0 0 0 0 0 0 0 0 0 0 0 0 0 0 0 0 0 0
-0 -0 -0 -0 0 0 0 0 0 0 0 0 0 0 0 0 0 0 0 0 0 0 0 0 0 0 0 0 0 0 0 -0 0 0 0 0 0 0 0 0 0 0 0 0 0
0 0 0 0 0 0 0 0 0 0 0 0 0 0 0 0 0 0 0 0 0 0 0 0 0 0 0 0 0 0 0 0 0 0 0 0 0 0 0 0 0 0 0 0 0
0 0 0 0 0 0 0 0 0 0 0 0 0 0 0 0 0 0 0 0 0 0 0 0 0 0 0 0 0 0 0 0 0 0 0 0 0 0 0 0 0 0 0 0 0
0 0 0 0 0 0 0 0 0 0 0 0 0 0 0 0 0 0 0 0 0 0 0 0 0 0 0 0 0 0 0 0 0 0 0 0 0 0 0 0 0 0 0 0 0
0 0 0 0 0 0 0 0 0 0 0 0 0 0 0 0 0 0 0 0 0 0 0 0 0 0 0 0 0 0 0 0 0 0 0 0 0 0 0 0 0 0 0 0 0
0 0 0 0 0 0 0 0 0 0 0 0 0 0 0 0 0 0 0 0 0 0 0 0 0 0 0 0 0 0 0 0 0 0 0 0 0 0 0 0 0 0 0 0 0
0 0 0 0 0 0 0 0 0 0 0 0 0 0 0 0 0 0 0 0 0 0 0 0 0 0 0 0 0 0 0 0 0 0 0 0 0 0 0 0 0 0 0 0 0
0 0 0 0 0 0 0 0 0 0 0 0 0 0 0 0 0 0 0 0 0 0 0 0 0 0 0 0 0 0 0 0 0 0 0 0 0 0 0 0 0 0 0 0 0
0 0 0 0 0 0 0 0 0 0 0 0 0 0 0 0 0 0 0 0 0 0 0 0 0 0 0 0 0 0 0 0 0 0 0 0 0 0 0 0 0 0 0 0 0
0 0 0 0 0 0 0 0 0 0 0 0 0 0 0 0 0 0 0 0 0 0 0 0 0 0 0 0 0 0 0 0 0 0 0 0 0 0 0 0 0 0 0 0 0
0 0 0 0 -0 0 0 0 0 0 0 0 0 -0 0 0 0 0 0 0 0 0 0 0 0 0 0 0 0 0 0 0 0 0 0 0 0 0 0 0 0 0 0 0 0
-0 0 0 0 0 0 0 -0 0 0 0 0 0 0 0 0 0 0 0 0 0 0 0 0 0 0 0 0 0 0 0 0 0 0 0 0 0 0 0 0 0 0 0 0 0
-0 -0 0 0 0 0 0 0 0 0 0 0 0 0 0 0 0 0 0 0 0 0 0 0 0 0 0 0 0 0 0 0 0 0 0 0 0 0 0 0 0 0 0 0 0
-0 0 0 0 0 0 0 0 0 0 0 0 0 0 0 0 0 0 0 0 0 0 0 0 0 0 0 0 0 0 0 0 0 0 0 0 0 0 0 0 0 0 0 0 0
0 0 0 0 0 0 0 0 0 0 0 0 -0 0 0 0 0 0 0 0 0 0 0 0 0 0 0 0 0 0 0 0 0 0 0 0 0 0 0 0 0 0 0 0 0
0 0 0 0 0 0 0 0 0 0 0 0 0 0 0 0 0 0 0 0 0 0 0 0 0 0 0 0 0 0 0 0 0 0 0 0 0 0 0 0 0 0 0 0 0
0 0 0 0 0 0 0 0 0 0 0 0 0 0 0 0 0 0 0 0 0 0 0 0 0 0 0 0 0 0 0 0 0 0 0 0 0 0 0 0 0 0 0 0 0
0 0 0 0 0 0 0 0 0 0 0 0 0 0 0 0 0 0 0 0 0 0 0 0 0 0 0 0 0 0 0 0 0 0 0 0 0 0 0 0 0 0 0 0 0
0 0 0 0 0 0 0 0 0 0 0 0 0 0 0 0 0 0 0 0 0 0 0 0 0 0 0 0 0 0 0 0 0 0 0 0 0 0 0 0 0 0 0 0 0
0 0 0 0 0 0 0 0 0 0 0 0 0 0 0 0 0 0 0 0 0 0 0 0 0 0 0 0 0 0 0 0 0 0 0 0 0 0 0 0 0 0 0 0 0
0 0 0 0 0 0 0 0 0 0 0 0 0 0 0 0 0 0 0 0 0 0 0 0 0 0 0 0 0 0 0 0 0 0 0 0 0 0 0 0 0 0 0 0 0
0 0 0 0 0 0 0 0 0 0 0 0 0 0 0 0 0 0 0 0 0 0 0 0 0 0 0 0 0 0 0 0 0 0 0 0 0 0 0 0 0 0 0 0 0
0 0 0 0 0 0 0 0 0 0 0 0 0 0 0 0 0 0 0 0 0 0 0 0 0 0 0 0 0 0 0 0 0 0 0 0 0 0 0 0 0 0 0 0 0
Wind_Speed_500mb
42 42 41 41 41 37 34 30 26 24 22 21 20 21 22 24 28 32 32 16 14 30 24 20 16 14 14 16 14 11 8 5 8 13 11 10 8 9 18 25 33 13 10 12 27
46 45 43 41 40 38 33 31 27 24 23 22 22 23 25 29 34 36 13 13 18 20 34 24 21 20 14 16 14 9 8 18 12 9 6 16 15 29 15 40 11 23 9 16 38
50 49 48 44 41 39 36 30 27 25 25 24 25 27 29 31 35 6 5 2 20 21 27 24 19 18 11 13 12 12 12 13 13 23 21 14 16 12 5 15 36 33 12 24 35
50 49 49 48 46 42 38 35 30 28 27 28 29 30 29 26 6 12 7 5 17 24 26 23 19 19 10 11 15 5 16 15 9 22 6 10 13 19 19 35 42 35 39 38 41
53 52 50 48 47 45 41 36 33 29 28 28 29 28 30 17 21 18 17 7 17 20 21 19 25 17 13 11 12 10 10 20 31 31 26 25 23 21 29 35 35 19 20 27 41
57 56 53 51 48 46 44 39 35 32 29 29 26 23 22 13 14 14 21 19 18 19 19 18 14 19 12 7 9 13 11 16 16 22 14 11 13 3 20 25 20 12 25 24 29
61 60 58 55 52 48 44 45 38 33 29 28 28 26 29 42 15 19 21 21 10 11 11 14 15 17 16 6 2 4 8 12 7 3 6 10 7 10 25 18 23 22 31 33 34
62 63 64 60 55 50 46 45 36 31 29 26 26 22 21 20 20 28 29 28 20 16 14 4 18 7 5 6 8 5 9 4 9 4 7 11 13 15 17 20 25 24 27 36 45
66 66 67 64 56 49 45 42 31 23 22 21 17 15 21 12 17 26 36 32 24 19 17 6 6 7 7 10 9 12 5 4 12 8 3 6 10 16 43 26 24 20 22 31 40
68 67 68 67 57 46 36 24 19 13 5 6 15 10 16 7 5 10 24 38 27 18 16 14 11 6 6 8 8 8 1 6 8 9 10 4 17 14 38 28 28 20 17 23 29
73 71 68 67 51 36 17 11 12 6 12 21 29 34 58 46 44 24 14 42 39 4 9 5 7 12 17 14 12 7 5 10 10 12 4 12 12 23 33 24 29 16 24 25 26
77 77 71 58 42 11 12 11 19 20 25 55 61 64 66 42 20 25 17 29 18 14 9 7 10 20 10 8 9 7 6 14 18 3 11 11 17 20 15 18 6 20 20 25 27
80 76 65 45 21 8 9 18 25 24 9 31 16 17 15 18 33 57 30 26 10 12 15 15 12 15 13 8 9 9 9 10 17 9 8 4 12 10 10 1 22 30 23 24 29
80 68 54 37 9 16 11 18 19 16 9 14 14 9 12 6 9 26 41 24 5 23 14 10 7 12 9 9 15 7 16 17 12 5 5 5 7 11 13 5 17 43 43 38 30
75 47 43 34 25 28 24 18 16 6 8 19 17 20 19 6 29 11 34 28 18 13 13 15 11 9 7 14 14 17 10 14 6 8 6 7 9 14 6 7 14 32 43 39 30
66 30 33 32 31 34 34 18 5 10 9 14 15 18 15 20 23 12 1 6 6 9 2 12 0 6 4 4 5 6 3 9 9 7 2 12 11 6 9 11 11 31 36 41 41
60 21 30 31 43 33 41 10 9 6 12 16 13 16 11 15 20 20 11 19 8 5 2 4 7 7 10 5 12 13 10 4 7 4 10 7 7 4 7 8 10 18 34 39 49
59 9 24 28 34 33 35 10 6 5 6 7 9 9 10 16 13 18 7 12 12 11 7 3 1 17 16 8 1 9 5 9 10 5 5 11 1 2 4 12 18 20 23 42 56
61 8 18 35 36 29 18 10 4 4 8 12 10 10 11 11 10 10 10 6 11 14 9 6 5 6 16 11 8 6 9 3 10 5 6 3 6 3 2 8 16 19 26 35 42
60 23 18 47 27 14 10 4 1 5 9 7 6 6 9 13 10 8 2 5 4 13 5 8 5 7 6 8 21 11 5 1 5 5 3 6 6 9 4 11 13 16 28 31 32
46 15 23 42 17 16 7 2 5 9 16 10 5 5 3 5 5 1 5 4 8 6 21 9 10 7 10 8 3 8 5 8 5 6 9 3 6 7 5 6 11 16 20 24 26
33 9 33 38 15 7 4 9 10 9 12 6 4 5 4 7 6 4 3 10 18 4 7 4 9 6 5 8 8 6 4 5 7 6 4 7 8 8 9 14 21 34 38 38 28
40 14 22 26 7 7 12 10 5 9 8 9 9 7 8 3 5 4 3 9 13 7 7 9 3 5 9 9 7 6 1 3 9 6 7 9 7 5 17 20 29 32 40 33 45
19 8 12 19 13 6 9 8 9 7 2 6 5 10 9 9 6 5 10 9 12 13 13 9 5 7 14 8 5 2 3 4 7 5 4 8 10 8 13 16 33 39 37 41 32
9 3 4 8 9 7 2 5 8 8 11 14 5 6 2 5 6 2 6 8 9 10 7 7 6 4 4 4 2 6 8 10 7 12 8 11 11 8 9 12 25 31 37 42 50
8 6 5 10 11 8 8 3 7 10 8 8 4 7 6 6 4 3 4 0 3 9 5 4 5 3 4 5 8 10 12 13 14 11 10 11 13 4 10 21 29 33 43 47 50
4 6 5 5 6 2 2 6 7 9 4 2 3 3 6 7 7 17 19 21 11 3 3 4 8 5 5 6 11 10 12 7 4 5 6 10 10 4 8 19 31 46 48 39 48
Wind_Direction_500mb
7 4 1 359 358 354 349 344 337 332 326 320 318 313 307 304 296 291 285 267 237 205 194 172 168 166 175 179 176 151 71 202 238 158 244 294 9 308 318 295 326 272 274 274 190
7 4 1 357 354 353 347 343 340 331 323 321 320 315 314 313 305 294 264 254 224 195 200 193 169 166 154 171 184 130 134 211 216 192 234 294 299 313 331 314 337 332 265 252 214
5 2 359 356 352 349 344 336 332 328 322 318 315 313 315 320 320 136 134 261 193 175 167 180 172 164 146 159 185 178 199 201 231 247 266 272 293 294 260 304 299 302 271 222 225
0 358 356 353 349 346 340 333 324 319 318 312 306 307 309 314 307 175 160 117 164 181 182 184 177 159 135 175 182 172 235 214 246 269 231 256 288 290 234 275 305 297 287 241 223
354 351 349 347 345 341 337 329 319 309 304 305 302 300 305 289 263 227 210 209 184 181 186 190 176 158 169 184 160 177 254 251 264 279 274 273 274 259 281 297 309 281 272 234 240
353 347 342 340 338 335 334 327 314 305 297 300 302 301 289 264 256 226 214 205 202 202 198 196 198 173 151 185 170 193 240 283 296 279 261 198 273 236 290 307 300 261 230 246 240
352 348 343 337 331 329 327 323 313 301 294 288 293 290 272 265 246 210 192 186 193 197 200 205 159 163 147 165 229 274 302 331 252 265 273 186 328 238 293 312 305 290 239 233 247
346 347 345 341 333 326 324 320 311 300 290 277 279 276 259 265 239 209 197 191 195 186 197 149 186 206 202 146 31 45 48 50 288 301 334 144 262 278 317 331 312 295 273 260 252
345 343 341 342 335 326 325 319 312 301 286 271 262 255 264 252 256 228 212 204 198 199 210 171 163 201 149 92 15 7 237 245 316 333 13 54 270 270 310 325 317 308 312 298 276
348 342 338 342 336 332 329 326 324 325 288 259 249 273 248 219 89 338 221 213 198 209 218 203 175 106 52 91 222 214 221 258 225 278 14 305 266 281 306 326 309 314 330 319 308
349 342 337 342 337 335 355 351 357 355 300 256 269 259 272 273 274 273 232 205 204 163 167 154 107 207 215 199 174 177 196 257 256 221 245 256 267 283 301 309 293 288 351 340 341
348 343 340 343 339 4 41 61 20 313 294 296 284 266 264 265 284 250 248 183 171 193 124 50 212 222 205 155 163 168 193 261 280 214 161 271 267 271 270 258 347 29 20 4 348
351 344 345 348 351 35 77 20 350 334 276 311 312 289 318 247 234 251 209 190 148 142 185 168 221 136 166 179 173 192 188 226 232 342 228 254 320 324 314 170 67 38 32 25 10
353 350 354 359 30 5 56 344 332 325 35 288 2 14 318 256 235 259 201 177 137 190 157 212 245 202 162 209 165 245 212 234 227 70 268 117 274 310 280 306 28 15 15 12 9
356 1 12 36 34 20 346 331 306 319 347 336 359 8 324 297 319 2 198 199 158 170 130 238 187 183 170 215 164 225 172 201 216 170 89 319 108 262 288 65 357 359 1 8 13
357 8 18 19 12 0 348 317 321 49 267 343 359 339 15 3 0 22 69 107 81 117 126 219 168 65 238 60 131 306 281 63 58 103 117 232 165 314 360 318 338 350 10 22 22
358 15 17 14 358 350 353 341 44 116 335 344 336 342 16 351 6 18 40 46 46 78 144 41 24 349 40 64 7 55 70 317 327 16 219 294 83 268 339 20 0 333 357 29 40
356 5 16 4 353 348 351 46 87 360 332 344 317 321 60 3 353 7 52 28 13 15 62 124 99 4 335 46 93 49 111 161 210 198 283 296 53 84 93 39 7 2 8 50 52
354 270 337 347 341 337 352 50 177 311 300 331 327 40 2 357 46 40 49 40 21 8 75 28 94 335 45 49 6 0 53 166 102 28 96 288 77 60 336 3 7 360 31 46 50
349 345 341 348 342 335 74 121 265 348 330 355 17 57 23 348 21 42 75 247 82 52 66 14 52 9 332 9 20 54 343 90 19 189 238 292 205 150 347 345 340 356 347 347 12
352 347 343 352 -0 49 94 306 320 351 14 16 321 309 32 14 310 283 298 149 169 157 93 75 48 281 19 50 128 353 351 37 99 119 164 188 258 180 217 287 294 315 339 335 343
354 346 343 357 47 36 40 320 328 335 347 319 76 15 40 22 316 283 291 9 330 108 125 120 155 219 254 294 224 143 189 162 125 252 242 154 255 62 17 336 326 325 337 333 308
338 310 359 2 70 352 322 313 320 352 352 334 13 45 13 2 329 330 29 1 65 71 148 180 50 59 350 345 353 62 11 101 89 60 221 164 242 83 9 356 357 357 353 306 297
343 350 352 47 79 73 3 292 323 356 74 1 58 51 25 6 0 323 12 5 35 92 90 113 120 183 203 198 140 194 324 327 131 122 250 226 286 298 350 343 345 1 8 14 15
350 346 355 320 349 350 275 307 317 326 5 22 65 28 299 289 326 46 1 344 14 4 58 89 166 190 229 250 241 219 228 250 216 227 187 263 268 272 333 327 338 353 10 13 13
319 348 341 284 312 338 9 357 331 332 18 331 43 330 343 214 232 266 -0 0 273 358 62 24 155 120 256 269 224 248 246 238 238 242 235 232 271 107 333 349 353 346 338 347 353
284 294 288 312 352 16 271 318 320 357 306 74 349 328 289 255 279 282 275 274 256 290 117 71 132 99 260 340 327 290 216 186 246 247 197 208 233 33 334 331 328 325 328 319 328
Wind_Speed_850mb
42 42 41 41 41 37 34 30 26 24 22 21 20 21 22 24 28 32 32 16 14 30 24 20 16 14 14 16 14 11 8 5 8 13 11 10 8 9 18 25 33 13 10 12 27
46 45 43 41 40 38 33 31 27 24 23 22 22 23 25 29 34 36 13 13 18 20 34 24 21 20 14 16 14 9 8 18 12 9 6 16 15 29 15 40 11 23 9 16 38
50 49 48 44 41 39 36 30 27 25 25 24 25 27 29 31 35 6 5 2 20 21 27 24 19 18 11 13 12 12 12 13 13 23 21 14 16 12 5 15 36 33 12 24 35
50 49 49 48 46 42 38 35 30 28 27 28 29 30 29 26 6 12 7 5 17 24 26 23 19 19 10 11 15 5 16 15 9 22 6 10 13 19 19 35 42 35 39 38 41
53 52 50 48 47 45 41 36 33 29 28 28 29 28 30 17 21 18 17 7 17 20 21 19 25 17 13 11 12 10 10 20 31 31 26 25 23 21 29 35 35 19 20 27 41
57 56 53 51 48 46 44 39 35 32 29 29 26 23 22 13 14 14 21 19 18 19 19 18 14 19 12 7 9 13 11 16 16 22 14 11 13 3 20 25 20 12 25 24 29
61 60 58 55 52 48 44 45 38 33 29 28 28 26 29 42 15 19 21 21 10 11 11 14 15 17 16 6 2 4 8 12 7 3 6 10 7 10 25 18 23 22 31 33 34
62 63 64 60 55 50 46 45 36 31 29 26 26 22 21 20 20 28 29 28 20 16 14 4 18 7 5 6 8 5 9 4 9 4 7 11 13 15 17 20 25 24 27 36 45
66 66 67 64 56 49 45 42 31 23 22 21 17 15 21 12 17 26 36 32 24 19 17 6 6 7 7 10 9 12 5 4 12 8 3 6 10 16 43 26 24 20 22 31 40
68 67 68 67 57 46 36 24 19 13 5 6 15 10 16 7 5 10 24 38 27 18 16 14 11 6 6 8 8 8 1 6 8 9 10 4 17 14 38 28 28 20 17 23 29
73 71 68 67 51 36 17 11 12 6 12 21 29 34 58 46 44 24 14 42 39 4 9 5 7 12 17 14 12 7 5 10 10 12 4 12 12 23 33 24 29 16 24 25 26
77 77 71 58 42 11 12 11 19 20 25 55 61 64 66 42 20 25 17 29 18 14 9 7 10 20 10 8 9 7 6 14 18 3 11 11 17 20 15 18 6 20 20 25 27
80 76 65 45 21 8 9 18 25 24 9 31 16 17 15 18 33 57 30 26 10 12 15 15 12 15 13 8 9 9 9 10 17 9 8 4 12 10 10 1 22 30 23 24 29
80 68 54 37 9 16 11 18 19 16 9 14 14 9 12 6 9 26 41 24 5 23 14 10 7 12 9 9 15 7 16 17 12 5 5 5 7 11 13 5 17 43 43 38 30
75 47 43 34 25 28 24 18 16 6 8 19 17 20 19 6 29 11 34 28 18 13 13 15 11 9 7 14 14 17 10 14 6 8 6 7 9 14 6 7 14 32 43 39 30
66 30 33 32 31 34 34 18 5 10 9 14 15 18 15 20 23 12 1 6 6 9 2 12 0 6 4 4 5 6 3 9 9 7 2 12 11 6 9 11 11 31 36 41 41
60 21 30 31 43 33 41 10 9 6 12 16 13 16 11 15 20 20 11 19 8 5 2 4 7 7 10 5 12 13 10 4 7 4 10 7 7 4 7 8 10 18 34 39 49
59 9 24 28 34 33 35 10 6 5 6 7 9 9 10 16 13 18 7 12 12 11 7 3 1 17 16 8 1 9 5 9 10 5 5 11 1 2 4 12 18 20 23 42 56
61 8 18 35 36 29 18 10 4 4 8 12 10 10 11 11 10 10 10 6 11 14 9 6 5 6 16 11 8 6 9 3 10 5 6 3 6 3 2 8 16 19 26 35 42
60 23 18 47 27 14 10 4 1 5 9 7 6 6 9 13 10 8 2 5 4 13 5 8 5 7 6 8 21 11 5 1 5 5 3 6 6 9 4 11 13 16 28 31 32
46 15 23 42 17 16 7 2 5 9 16 10 5 5 3 5 5 1 5 4 8 6 21 9 10 7 10 8 3 8 5 8 5 6 9 3 6 7 5 6 11 16 20 24 26
33 9 33 38 15 7 4 9 10 9 12 6 4 5 4 7 6 4 3 10 18 4 7 4 9 6 5 8 8 6 4 5 7 6 4 7 8 8 9 14 21 34 38 38 28
40 14 22 26 7 7 12 10 5 9 8 9 9 7 8 3 5 4 3 9 13 7 7 9 3 5 9 9 7 6 1 3 9 6 7 9 7 5 17 20 29 32 40 33 45
19 8 12 19 13 6 9 8 9 7 2 6 5 10 9 9 6 5 10 9 12 13 13 9 5 7 14 8 5 2 3 4 7 5 4 8 10 8 13 16 33 39 37 41 32
9 3 4 8 9 7 2 5 8 8 11 14 5 6 2 5 6 2 6 8 9 10 7 7 6 4 4 4 2 6 8 10 7 12 8 11 11 8 9 12 25 31 37 42 50
8 6 5 10 11 8 8 3 7 10 8 8 4 7 6 6 4 3 4 0 3 9 5 4 5 3 4 5 8 10 12 13 14 11 10 11 13 4 10 21 29 33 43 47 50
4 6 5 5 6 2 2 6 7 9 4 2 3 3 6 7 7 17 19 21 11 3 3 4 8 5 5 6 11 10 12 7 4 5 6 10 10 4 8 19 31 46 48 39 48
Wind_Direction_850mb
7 4 1 359 358 354 349 344 337 332 326 320 318 313 307 304 296 291 285 267 237 205 194 172 168 166 175 179 176 151 71 202 238 158 244 294 9 308 318 295 326 272 274 274 190
7 4 1 357 354 353 347 343 340 331 323 321 320 315 314 313 305 294 264 254 224 195 200 193 169 166 154 171 184 130 134 211 216 192 234 294 299 313 331 314 337 332 265 252 214
5 2 359 356 352 349 344 336 332 328 322 318 315 313 315 320 320 136 134 261 193 175 167 180 172 164 146 159 185 178 199 201 231 247 266 272 293 294 260 304 299 302 271 222 225
0 358 356 353 349 346 340 333 324 319 318 312 306 307 309 314 307 175 160 117 164 181 182 184 177 159 135 175 182 172 235 214 246 269 231 256 288 290 234 275 305 297 287 241 223
354 351 349 347 345 341 337 329 319 309 304 305 302 300 305 289 263 227 210 209 184 181 186 190 176 158 169 184 160 177 254 251 264 279 274 273 274 259 281 297 309 281 272 234 240
353 347 342 340 338 335 334 327 314 305 297 300 302 301 289 264 256 226 214 205 202 202 198 196 198 173 151 185 170 193 240 283 296 279 261 198 273 236 290 307 300 261 230 246 240
352 348 343 337 331 329 327 323 313 301 294 288 293 290 272 265 246 210 192 186 193 197 200 205 159 163 147 165 229 274 302 331 252 265 273 186 328 238 293 312 305 290 239 233 247
346 347 345 341 333 326 324 320 311 300 290 277 279 276 259 265 239 209 197 191 195 186 197 149 186 206 202 146 31 45 48 50 288 301 334 144 262 278 317 331 312 295 273 260 252
345 343 341 342 335 326 325 319 312 301 286 271 262 255 264 252 256 228 212 204 198 199 210 171 163 201 149 92 15 7 237 245 316 333 13 54 270 270 310 325 317 308 312 298 276
348 342 338 342 336 332 329 326 324 325 288 259 249 273 248 219 89 338 221 213 198 209 218 203 175 106 52 91 222 214 221 258 225 278 14 305 266 281 306 326 309 314 330 319 308
349 342 337 342 337 335 355 351 357 355 300 256 269 259 272 273 274 273 232 205 204 163 167 154 107 207 215 199 174 177 196 257 256 221 245 256 267 283 301 309 293 288 351 340 341
348 343 340 343 339 4 41 61 20 313 294 296 284 266 264 265 284 250 248 183 171 193 124 50 212 222 205 155 163 168 193 261 280 214 161 271 267 271 270 258 347 29 20 4 348
351 344 345 348 351 35 77 20 350 334 276 311 312 289 318 247 234 251 209 190 148 142 185 168 221 136 166 179 173 192 188 226 232 342 228 254 320 324 314 170 67 38 32 25 10
353 350 354 359 30 5 56 344 332 325 35 288 2 14 318 256 235 259 201 177 137 190 157 212 245 202 162 209 165 245 212 234 227 70 268 117 274 310 280 306 28 15 15 12 9
356 1 12 36 34 20 346 331 306 319 347 336 359 8 324 297 319 2 198 199 158 170 130 238 187 183 170 215 164 225 172 201 216 170 89 319 108 262 288 65 357 359 1 8 13
357 8 18 19 12 0 348 317 321 49 267 343 359 339 15 3 0 22 69 107 81 117 126 219 168 65 238 60 131 306 281 63 58 103 117 232 165 314 360 318 338 350 10 22 22
358 15 17 14 358 350 353 341 44 116 335 344 336 342 16 351 6 18 40 46 46 78 144 41 24 349 40 64 7 55 70 317 327 16 219 294 83 268 339 20 0 333 357 29 40
356 5 16 4 353 348 351 46 87 360 332 344 317 321 60 3 353 7 52 28 13 15 62 124 99 4 335 46 93 49 111 161 210 198 283 296 53 84 93 39 7 2 8 50 52
354 270 337 347 341 337 352 50 177 311 300 331 327 40 2 357 46 40 49 40 21 8 75 28 94 335 45 49 6 0 53 166 102 28 96 288 77 60 336 3 7 360 31 46 50
349 345 341 348 342 335 74 121 265 348 330 355 17 57 23 348 21 42 75 247 82 52 66 14 52 9 332 9 20 54 343 90 19 189 238 292 205 150 347 345 340 356 347 347 12
352 347 343 352 -0 49 94 306 320 351 14 16 321 309 32 14 310 283 298 149 169 157 93 75 48 281 19 50 128 353 351 37 99 119 164 188 258 180 217 287 294 315 339 335 343
354 346 343 357 47 36 40 320 328 335 347 319 76 15 40 22 316 283 291 9 330 108 125 120 155 219 254 294 224 143 189 162 125 252 242 154 255 62 17 336 326 325 337 333 308
338 310 359 2 70 352 322 313 320 352 352 334 13 45 13 2 329 330 29 1 65 71 148 180 50 59 350 345 353 62 11 101 89 60 221 164 242 83 9 356 357 357 353 306 297
343 350 352 47 79 73 3 292 323 356 74 1 58 51 25 6 0 323 12 5 35 92 90 113 120 183 203 198 140 194 324 327 131 122 250 226 286 298 350 343 345 1 8 14 15
350 346 355 320 349 350 275 307 317 326 5 22 65 28 299 289 326 46 1 344 14 4 58 89 166 190 229 250 241 219 228 250 216 227 187 263 268 272 333 327 338 353 10 13 13
319 348 341 284 312 338 9 357 331 332 18 331 43 330 343 214 232 266 -0 0 273 358 62 24 155 120 256 269 224 248 246 238 238 242 235 232 271 107 333 349 353 346 338 347 353
284 294 288 312 352 16 271 318 320 357 306 74 349 328 289 255 279 282 275 274 256 290 117 71 132 99 260 340 327 290 216 186 246 247 197 208 233 33 334 331 328 325 328 319 328